Погода в Нова-Фрибургу

Бразилия     22°17′49″S   42°32′02″W
темп.,
°C
ветер,
м/с
пор.,
м/с
влажн.,
%
обл.,
%
осадки,
мм/ч
давл.,
гПа
погр.,
м
27 февраля, сб
сб2700:00+17ююз1198100 4.7 101538
03:00+16ю0197100 5.7 101423
06:00+16з0196100 0.0 101423
09:00+21ссв1280100 0.0 1016473
12:00+25ссв2458100 0.0 10151207
15:00+22св2372100 0.1 1013703
18:00+19в1190100 0.0 101330
21:00+17зюз019398 0.1 101525
28 февраля, вс
вс2800:00+17св1195100 0.3 101537
03:00+17св1191100 0.3 101444
06:00+15с0190100 0.0 101533
09:00+21ссв256999 0.0 1016628
12:00+24ссв2462100 0.0 10151070
15:00+23ссв2368100 0.0 1013782
18:00+19ссв1195100 0.1 101343
21:00+17всв0199100 0.2 101537
1 марта, пн
пн100:00+16ссв019797 0.0 101433
03:00+15ссз119779 0.0 101334
06:00+16с119981 0.0 101445
09:00+21с247789 0.0 1015621
12:00+24ссв346388 0.0 10141121
15:00+24ссв336267 0.0 10121160
18:00+19ссв119072 0.1 101233
21:00+17с119757 0.1 101438
2 марта, вт
вт200:00+17с1198100 0.0 101451
03:00+15с1192100 0.0 101338
06:00+15сз119762 0.0 101436
09:00+22с237477 0.0 1016654
12:00+25с336374 0.0 10151162
15:00+25с335958 0.1 10131225
18:00+20с129326 0.1 101373
21:00+17с119847 0.1 101532
3 марта, ср
ср300:00+17ссз119982 0.0 101547
03:00+16ссз119685 0.0 101434
06:00+16сз119584 0.0 101633
09:00+22ссз257483 0.0 1017707
12:00+22ссз2384100 1.1 1016714
15:00+23ссз1283100 3.1 1014580
18:00+19ссв009692 2.1 101423
21:00+18ююз119696 2.9 101625